Weather in Sherabad

Uzbekistan     37°40′30″N   67°00′59″E
temp.,
°C
wind,
m/s
gust,
m/s
humid.,
%
clouds,
%
prec.,
mm/h
press.,
hPa
HPBL,
m
18 april, sun
sun1823:00+20nw333059 0.0 101644
02:00+17nw223638 0.0 101731
05:00+16sw114217 0.1 101819
08:00+19wnw24353 0.0 1020408
11:00+22sse11276 0.0 10202342
14:00+24nne132240 0.0 10193120
17:00+24ne432312 0.0 10172396
20:00+21e58354 0.0 1019313
19 april, mon
mon1923:00+18nne34445 0.0 102095
02:00+17nne34430 0.0 101873
05:00+16n33444 0.0 101728
08:00+20ne48342 0.0 1016546
11:00+24e55214 0.0 10142073
14:00+26ene33165 0.0 10122276
17:00+26ne121518 0.0 10102289
20:00+23ssw222017 0.0 101011
20 april, tue
tue2023:00+20nnw112698 0.0 101112
02:00+19n2234100 0.0 101113
05:00+18nne2235100 0.0 101112
08:00+21sw3528100 0.0 1012275
11:00+22sw4428100 0.0 10131315
14:00+25s332285 0.0 10112778
17:00+24nw872713 0.0 10101479
20:00+21nnw46355 0.0 1012125
21 april, wed
wed2123:00+19ene244165 0.0 1013138
02:00+17nne22468 0.0 101322
05:00+16ne235041 0.0 101432
08:00+19ene344197 0.0 1015390
11:00+22sse223248 0.0 10141218
14:00+26wsw67215 0.0 10112839
17:00+25nw67231 0.0 10112390
20:00+20nnw57346 0.0 1013213
22 april, thu
thu2223:00+17nw4636100 0.0 1013104
02:00+15n123035 0.0 101415
05:00+14nne2235100 0.0 101624
08:00+17nnw0124100 0.0 1019249
11:00+20ene2227100 0.0 10191223
14:00+23e232391 0.0 10181918
17:00+24se22207 0.0 10171980
20:00+21sse22230 0.0 101824